Weather Service Report


897 
ASUS41 KPHI 221311
RWRPHI

REGIONAL WEATHER ROUNDUP
NATIONAL WEATHER SERVICE MOUNT HOLLY NJ
800 AM EST WED FEB 22 2017

NOTE:  "FAIR" INDICATES FEW OR NO CLOUDS BELOW 12,000 FEET WITH NO
SIGNIFICANT WEATHER AND/OR OBSTRUCTIONS TO VISIBILITY.

 * = STATION DOES NOT REPORT PRECIPITATION (E.G. RAIN, SNOW, ETC.) 
        OR FOG.

NJZ015>026-221400-
SOUTHERN NEW JERSEY
  
CITY           SKY/WX    TMP DP  RH WIND       PRES   REMARKS
POMONA         FAIR      43  39  86 CALM      30.08S                  
WILDWOOD*      FAIR      45  43  93 CALM      30.09R                  
MILLVILLE      FAIR      42  40  92 CALM      30.07S                  
WRIGHTSTOWN    CLOUDY    40  37  87 S3        30.03F                  
MOUNT HOLLY    LGT RAIN  40  37  89 SE3       30.05F                  
TRENTON        CLOUDY    42  37  82 S5        30.05F                  

$$
NJZ001>014-221400-
NORTHERN NEW JERSEY
  
CITY           SKY/WX    TMP DP  RH WIND       PRES   REMARKS
SUSSEX         CLOUDY    41  35  79 CALM      30.03R                  
ANDOVER*         N/A     40  34  79 CALM      30.03R                  
MORRISTOWN     CLOUDY    41  36  81 CALM      30.06R                  
NEWARK         PTSUNNY   42  36  79 VRB3      30.05S                  
TETERBORO      PTSUNNY   43  36  76 SW7       30.05S                  
CALDWELL       CLOUDY    42  34  73 SW3       30.06R                  
SOMERVILLE     FAIR      39  34  82 CALM      30.04R                  
ALLAIRE*       PTSUNNY   40  37  89 S3        30.06F                  
TOMS RIVER*    PTSUNNY   39  37  92 CALM      30.07F                  

$$
PAZ043-044-047-054-055-060>062-066>071-221400-
EASTERN PENNSYLVANIA
  
CITY           SKY/WX    TMP DP  RH WIND       PRES   REMARKS
PHILADELPHIA   CLOUDY    43  37  79 S5        30.07S                  
NORTH PHILA    CLOUDY    43  40  89 CALM      30.07F                  
BLUE BELL*     CLOUDY    41  37  87 CALM      30.05R                  
DOYLESTOWN     CLOUDY    43  36  76 SW3       30.04R                  
QUAKERTOWN*    FAIR      39  36  87 CALM      30.05R                  
POTTSTOWN      PTSUNNY   41  35  79 CALM      30.06R                  
LANCASTER      FAIR      42  39  89 SE3       30.03S                  
COATESVILLE    PTSUNNY   41  37  87 CALM      30.05S                  
READING        FAIR      42  38  85 CALM      30.04R                  
ALLENTOWN      FAIR      41  34  76 CALM      30.04R                  
MOUNT POCONO   CLOUDY    39  33  79 NW6       29.97S WCI  35          
LEHIGHTON      CLOUDY    37  32  81 CALM      30.04R                  
WILKES BARRE   LGT RAIN  42  36  79 NE5       30.00R                  

$$
DEZALL-MDZ008-012-015-019-020-221400-
DELAWARE AND EASTERN MARYLAND
  
CITY           SKY/WX    TMP DP  RH WIND       PRES   REMARKS
WILMINGTON     FAIR      42  38  85 SE5       30.06F                  
DOVER          FAIR      43  43 100 CALM      30.05S                  
GEORGETOWN     FAIR      45  42  89 CALM      30.07R                  
EASTON         CLOUDY    46  41  81 CALM      30.10R                  
ABERDEEN       CLOUDY    42  38  87 CALM      30.06S                  
PATUXENT       PTSUNNY   46  43  89 CALM      30.06R                  
OCEAN CITY     FAIR      49  47  93 S3        30.07S                  
WALLOPS ISLAND CLOUDY    47  47 100 CALM      30.07R                  
SALISBURY      FAIR      45  45 100 CALM      30.06R                  

$$
PAZ001-021-NYZ056-072-MDZ011-DCZ001-221400-
OTHER NEARBY LOCATIONS
  
CITY           SKY/WX    TMP DP  RH WIND       PRES   REMARKS
HARRISBURG     CLOUDY    43  37  79 SE3       30.03R                  
STATE COLLEGE  CLOUDY    43  36  75 CALM      29.99R                  
WILLIAMSPORT   CLOUDY    44  32  62 SE3       30.01R                  
BINGHAMTON     PTSUNNY   38  30  73 S3        29.96R                  
NEW YORK CITY  CLOUDY    45  35  68 CALM      30.07S                  
BALTIMORE      CLOUDY    45  40  82 CALM      30.05R                  
WASHINGTON DC  CLOUDY    47  42  83 S3        30.06R                  

$$
  

Return to Home page


Western Regional Climate Center, wrcc@dri.edu